#timestamp,LO_Frequency,Hit,StdDev 
1505563215.1,286046996.5,N
1505563235.8,286046998.6,N
1505563255.7,286047001.1,N
1505563275.5,286047000.6,N
1505563295.3,286047002.4,N
1505563315.2,286047000.9,N
1505563335.9,286047001.1,N
1505563355.7,286046999.7,N
1505563375.6,286046998.8,N
1505563395.4,286046998.8,N
1505563415.2,286047000.4,N
1505563435.1,286046999.5,N
1505563436.0,286046999.5,N
1505563455.8,286046998.0,N
1505563475.6,286047004.3,N
1505563495.4,286047004.0,N
1505563515.3,286047001.0,N
1505563535.1,286047002.4,N
1505563555.8,286047002.5,N
1505563575.7,286046998.6,N
1505563595.5,286047001.4,N
1505563615.3,286047001.6,N
1505563635.2,286046999.9,N
1505563655.9,286046999.0,N
1505563675.7,286046995.4,N
1505563695.6,286046997.3,N
1505563715.4,286046999.6,N
1505563735.2,286046997.2,N
1505563755.1,286046994.0,N
1505563756.0,286046994.0,N
1505563775.8,286046994.3,N
1505563795.6,286046996.7,N
1505563815.5,286047000.7,N
1505563835.3,286047000.6,N
1505563855.1,286046998.3,N
1505563875.9,286046998.5,N
1505563895.7,286046998.5,N
1505563915.5,286046998.1,N
1505563935.3,286047000.6,N
1505563955.2,286047002.4,N
1505563975.0,286047000.7,N
1505563975.9,286047000.7,N
1505563995.7,286047001.4,N
1505564015.6,286046999.8,N
1505564035.4,286047000.6,N
1505564055.2,286047001.3,N
1505564075.1,286047003.6,N
1505564076.0,286047003.6,N
1505564095.8,286047005.9,N
1505564115.6,286047004.2,N
1505564135.5,286047000.0,N
1505564155.3,286046999.6,N
1505564175.1,286046997.0,N
1505564195.9,286046996.5,N
1505564215.7,286046998.4,N
1505564235.5,286046998.0,N
1505564255.5,286046997.4,N
1505564275.3,286046997.2,N
1505564295.2,286046997.5,N
1505564315.9,286046999.1,N
1505564335.7,286046997.9,N
1505564355.5,286046995.3,N
1505564375.4,286046999.0,N
1505564395.2,286047000.4,N
1505564415.0,286047000.4,N
1505564415.9,286047000.4,N
1505564435.8,286047000.8,N
1505564455.6,286046999.8,N
1505564475.4,286047002.5,N
1505564495.3,286047002.1,N
1505564515.1,286047000.4,N
1505564516.0,286047000.4,N
1505564535.8,286047001.7,N
1505564555.7,286046999.4,N
1505564575.5,286046995.5,N
1505564595.3,286046995.7,N
1505564615.2,286047000.8,N
1505564635.9,286046998.4,N
1505564655.7,286046999.2,N
1505564675.6,286046997.3,N
1505564695.4,286046995.4,N
1505564715.2,286046997.7,N
1505564735.0,286046998.0,N
1505564735.9,286046998.0,N
1505564755.8,286046997.1,N
1505564775.6,286046998.8,N
1505564795.4,286046994.9,N
1505564815.3,286046995.5,N
1505564835.1,286046998.4,N
1505564855.8,286046997.8,N
1505564875.7,286046995.9,N
1505564895.5,286046999.0,N
1505564915.3,286046995.6,N
1505564935.2,286046993.7,N
1505564955.9,286046997.8,N
1505564975.7,286046999.6,N
1505564995.6,286046995.0,N
1505565015.4,286046997.1,N
1505565035.2,286046995.8,N
1505565055.0,286046995.8,N
1505565056.0,286046995.8,N
1505565075.8,286046998.7,N
1505565095.6,286046999.5,N
1505565115.4,286046998.8,N
1505565135.3,286046998.8,N
1505565155.1,286046996.5,N
1505565175.8,286046998.7,N
1505565195.7,286046997.3,N
1505565215.5,286046998.0,N
1505565235.3,286046996.7,N
1505565255.2,286046997.4,N
1505565275.9,286046997.9,N
1505565295.7,286046996.7,N
1505565315.6,286046998.4,N
1505565335.4,286046997.3,N
1505565355.2,286046999.3,N
1505565375.1,286046997.5,N
1505565376.0,286046997.5,N
1505565395.8,286046999.4,N
1505565415.6,286047002.8,N
1505565435.4,286047002.6,N
1505565455.3,286047001.7,N
1505565475.1,286047001.1,N
1505565495.8,286046998.5,N
1505565515.7,286047000.4,N
1505565535.5,286046999.5,N
1505565555.3,286046997.3,N
1505565575.2,286046997.9,N
1505565595.9,286047000.5,N
1505565615.7,286047000.5,N
1505565635.6,286047002.1,N
1505565655.4,286046999.0,N
1505565675.2,286046999.8,N
1505565695.1,286047000.1,N
1505565696.0,286047000.1,N
1505565715.8,286047002.5,N
1505565735.6,286047000.7,N
1505565755.5,286046999.0,N
1505565775.3,286046999.3,N
1505565795.1,286046999.4,N
1505565815.8,286046996.6,N
1505565835.7,286046999.5,N
1505565855.5,286047000.2,N
1505565875.3,286047000.5,N
1505565895.2,286047001.0,N
1505565915.0,286047001.1,N
1505565915.9,286047001.1,N
1505565935.7,286046998.4,N
1505565955.6,286046998.7,N
1505565975.4,286047000.1,N
1505565995.2,286047000.2,N
1505566015.1,286047002.4,N
1505566016.0,286047002.4,N
1505566035.8,286047004.7,Y
1505566055.6,286047003.7,P
1505566075.5,286047001.6,N
1505566095.3,286047001.8,N
1505566115.1,286047003.5,N
1505566135.9,286047004.1,N
1505566155.7,286047004.3,N
1505566175.5,286047000.1,N
1505566195.4,286047000.4,N
1505566215.2,286047002.8,N
1505566235.0,286046998.1,N
1505566235.9,286046998.1,N
1505566255.8,286046997.6,N
1505566275.6,286046997.3,N
1505566295.4,286046994.9,N
1505566315.3,286046995.1,N
1505566335.1,286046996.8,N
1505566336.0,286046996.8,N
1505566355.8,286046995.2,N
1505566375.6,286046999.2,N
1505566395.5,286046996.6,N
1505566415.3,286046997.8,N
1505566435.1,286046998.9,N
1505566455.9,286046996.6,N
1505566475.7,286046995.0,N
1505566495.5,286046995.7,N
1505566515.4,286046996.3,N
1505566535.2,286046994.3,N
1505566555.0,286046993.5,N
1505566555.9,286046993.5,N
1505566575.8,286046995.9,N
1505566595.6,286046997.5,N
1505566615.4,286046997.5,N
1505566635.3,286046997.4,N
1505566655.1,286046998.2,N
1505566656.0,286046998.2,N
1505566675.8,286046999.0,N
1505566695.6,286046994.9,N
1505566715.5,286046995.8,N
1505566735.3,286046991.3,Y
1505566755.2,286046990.3,P
1505566775.9,286046992.9,N
1505566795.7,286046996.2,N
